DAH28Y DAUH-DABC

Flight info

Callsign DAH28Y
Flight time 0h 57m
Altitude 32000
Route HME UJ30 ELO UR978 CSO
Aircraft B738/M-SDE2E3FGHIRWXY/LB1

Departure

Time 2026-04-30 17:43
Airport Hassi Messaoud-Oued Irara Krim Belkacem Airport (DAUH)

Arrival

Time 2026-04-30 18:40
Airport Mohamed Boudiaf International Airport (DABC)
Time Latitude Longitude Altitude Speed Heading
2026-04-30 17:39 31.66573 6.14181 470 ft 7 kts 183°
2026-04-30 17:41 31.65937 6.13945 479 ft 9 kts 292°
2026-04-30 17:42 31.66002 6.13927 479 ft 0 kts
2026-04-30 17:42 31.68004 6.14121 701 ft 180 kts
2026-04-30 17:43 31.70309 6.14483 2452 ft 175 kts 16°
2026-04-30 17:44 31.74320 6.16014 4077 ft 226 kts 17°
2026-04-30 17:44 31.79409 6.17721 5814 ft 280 kts 18°
2026-04-30 17:46 31.89241 6.21115 10095 ft 307 kts 15°
2026-04-30 17:47 31.98031 6.24148 12648 ft 353 kts 14°
2026-04-30 17:48 32.07664 6.27482 15706 ft 373 kts 13°
2026-04-30 17:48 32.15281 6.30127 17821 ft 388 kts 12°
2026-04-30 17:49 32.25818 6.33792 20698 ft 402 kts 12°
2026-04-30 17:50 32.36744 6.37601 23228 ft 417 kts 11°
2026-04-30 17:51 32.45176 6.40547 24933 ft 428 kts 11°
2026-04-30 17:52 32.53808 6.43569 26720 ft 432 kts 11°
2026-04-30 17:53 32.68132 6.48610 29708 ft 430 kts 10°
2026-04-30 17:54 32.79526 6.52625 31837 ft 426 kts
2026-04-30 17:56 33.02302 6.60672 31903 ft 425 kts
2026-04-30 17:58 33.19291 6.66705 31899 ft 424 kts
2026-04-30 18:00 33.41932 6.74785 31905 ft 424 kts
2026-04-30 18:01 33.56061 6.77986 31894 ft 402 kts 351°
2026-04-30 18:02 33.72793 6.76781 31893 ft 401 kts 349°
2026-04-30 18:04 33.89510 6.75730 31905 ft 401 kts 349°
2026-04-30 18:06 34.11793 6.74368 31917 ft 400 kts 349°
2026-04-30 18:08 34.31274 6.73170 31910 ft 399 kts 349°
2026-04-30 18:10 34.53413 6.71800 31941 ft 397 kts 350°
2026-04-30 18:11 34.72708 6.70600 31974 ft 397 kts 350°
2026-04-30 18:13 34.86523 6.69746 32034 ft 396 kts 350°
2026-04-30 18:14 35.00283 6.68903 32076 ft 395 kts 350°
2026-04-30 18:15 35.16858 6.67880 32133 ft 397 kts 351°
2026-04-30 18:16 35.27947 6.67194 32170 ft 398 kts 351°
2026-04-30 18:17 35.33467 6.66851 32160 ft 399 kts 351°
2026-04-30 18:18 35.41795 6.66331 31588 ft 402 kts 352°
2026-04-30 18:18 35.44579 6.66156 31270 ft 394 kts 352°
2026-04-30 18:18 35.47316 6.65988 30677 ft 391 kts 352°
2026-04-30 18:18 35.50008 6.65820 29845 ft 388 kts 352°
2026-04-30 18:19 35.52661 6.65652 29079 ft 383 kts 353°
2026-04-30 18:19 35.55327 6.65485 28345 ft 378 kts 352°
2026-04-30 18:19 35.57916 6.65325 27538 ft 376 kts 353°
2026-04-30 18:19 35.60503 6.65167 26809 ft 370 kts 353°
2026-04-30 18:20 35.63062 6.65010 26042 ft 367 kts 353°
2026-04-30 18:20 35.65575 6.64855 25372 ft 360 kts 353°
2026-04-30 18:20 35.68047 6.64701 24959 ft 350 kts 353°
2026-04-30 18:20 35.70452 6.64549 24492 ft 348 kts 353°
2026-04-30 18:21 35.72864 6.64394 24063 ft 345 kts 353°
2026-04-30 18:21 35.75240 6.64243 23641 ft 342 kts 353°
2026-04-30 18:21 35.77601 6.64092 23221 ft 339 kts 354°
2026-04-30 18:21 35.79966 6.63942 22808 ft 336 kts 353°
2026-04-30 18:22 35.82280 6.63793 22392 ft 334 kts 354°
2026-04-30 18:22 35.86892 6.63502 21571 ft 329 kts 354°
2026-04-30 18:22 35.89142 6.63361 21167 ft 327 kts 354°
2026-04-30 18:23 35.91419 6.63218 20755 ft 325 kts 354°
2026-04-30 18:23 35.93659 6.63076 20356 ft 323 kts 354°
2026-04-30 18:23 35.95906 6.62933 19943 ft 321 kts 354°
2026-04-30 18:23 35.98125 6.62792 19541 ft 319 kts 354°
2026-04-30 18:24 36.02519 6.62513 18742 ft 315 kts 354°
2026-04-30 18:24 36.04711 6.62375 18335 ft 313 kts 354°
2026-04-30 18:24 36.06861 6.62238 17936 ft 311 kts 354°
2026-04-30 18:25 36.09008 6.62102 17548 ft 308 kts 354°
2026-04-30 18:25 36.13279 6.61832 16761 ft 305 kts 354°
2026-04-30 18:25 36.15397 6.61699 16369 ft 303 kts 354°
2026-04-30 18:26 36.19577 6.61432 15732 ft 307 kts 354°
2026-04-30 18:26 36.21743 6.61290 15482 ft 312 kts 354°
2026-04-30 18:26 36.23914 6.61232 15234 ft 310 kts
2026-04-30 18:27 36.27810 6.63272 15064 ft 320 kts 45°
2026-04-30 18:27 36.29048 6.65567 15067 ft 325 kts 65°
2026-04-30 18:28 36.29631 6.71077 14378 ft 329 kts 107°
2026-04-30 18:28 36.28640 6.73564 13979 ft 323 kts 130°
2026-04-30 18:28 36.25109 6.76718 13148 ft 310 kts 165°
2026-04-30 18:29 36.23025 6.77052 12780 ft 299 kts 189°
2026-04-30 18:29 36.17947 6.73458 11691 ft 282 kts 232°
2026-04-30 18:30 36.15262 6.69993 10961 ft 285 kts 208°
2026-04-30 18:30 36.11299 6.69584 10385 ft 290 kts 171°
2026-04-30 18:31 36.09349 6.70257 10381 ft 289 kts 160°
2026-04-30 18:31 36.06926 6.73861 10387 ft 280 kts 100°
2026-04-30 18:32 36.06462 6.78435 10247 ft 261 kts 103°
2026-04-30 18:32 36.05765 6.80459 9913 ft 260 kts 132°
2026-04-30 18:32 36.02599 6.81727 9346 ft 243 kts 197°
2026-04-30 18:33 36.01068 6.80953 9043 ft 238 kts 216°
2026-04-30 18:33 35.98910 6.78022 8455 ft 230 kts 249°
2026-04-30 18:33 35.98602 6.76141 8250 ft 224 kts 275°
2026-04-30 18:34 35.98917 6.74261 8076 ft 226 kts 291°
2026-04-30 18:34 36.00854 6.71385 7605 ft 223 kts 335°
2026-04-30 18:34 36.02343 6.70813 7388 ft 224 kts 350°
2026-04-30 18:35 36.03901 6.70871 7118 ft 228 kts 10°
2026-04-30 18:35 36.05472 6.71263 6818 ft 227 kts
2026-04-30 18:35 36.07033 6.71173 6509 ft 227 kts 346°
2026-04-30 18:36 36.09980 6.69835 5878 ft 221 kts 339°
2026-04-30 18:36 36.11362 6.69172 5532 ft 206 kts 340°
2026-04-30 18:36 36.13868 6.68026 5019 ft 177 kts 340°
2026-04-30 18:37 36.14992 6.67499 4758 ft 164 kts 340°
2026-04-30 18:37 36.16024 6.67018 4537 ft 156 kts 341°
2026-04-30 18:37 36.17033 6.66550 4309 ft 151 kts 341°
2026-04-30 18:37 36.18022 6.66090 4104 ft 153 kts 340°
2026-04-30 18:38 36.19011 6.65629 3893 ft 152 kts 340°
2026-04-30 18:38 36.20011 6.65162 3677 ft 153 kts 340°
2026-04-30 18:38 36.21011 6.64696 3465 ft 153 kts 341°
2026-04-30 18:38 36.22005 6.64234 3252 ft 152 kts 341°
2026-04-30 18:39 36.22982 6.63778 3047 ft 152 kts 340°
2026-04-30 18:39 36.23979 6.63326 2818 ft 152 kts 341°
2026-04-30 18:39 36.24994 6.62876 2610 ft 153 kts 339°
2026-04-30 18:39 36.25979 6.62410 2407 ft 152 kts 339°
2026-04-30 18:40 36.26951 6.61949 2318 ft 139 kts 337°
2026-04-30 18:40 36.27671 6.61602 2315 ft 82 kts 339°
2026-04-30 18:40 36.28056 6.61416 2314 ft 46 kts 338°
2026-04-30 18:40 36.28354 6.61280 2312 ft 45 kts 338°
2026-04-30 18:41 36.28603 6.61162 2305 ft 25 kts 340°
2026-04-30 18:41 36.28737 6.61136 2299 ft 18 kts 24°
2026-04-30 18:41 36.28759 6.61252 2295 ft 15 kts 111°
2026-04-30 18:41 36.28716 6.61364 2297 ft 13 kts 116°
2026-04-30 18:42 36.28676 6.61468 2298 ft 12 kts 117°
2026-04-30 18:42 36.28560 6.61639 2297 ft 14 kts 137°
2026-04-30 18:42 36.28560 6.61710 2296 ft 1 kts 46°
2026-04-30 18:45 36.28589 6.61747 2295 ft 0 kts 46°